Location: Unspecified
(0.0000°N, 0.0000°E)
Time: 17:53:56
(UTC+01:00)

Vanguard 1 Rocket - Visible Passes

Search period start: 27 January 2015 00:00
Search period end: 06 February 2015 00:00
Orbit: 655 x 4224 km, 34.3° (Epoch: 26 January)

Date Brightness Start Highest point End Pass type
(mag) Time Alt. Az. Time Alt. Az. Time Alt. Az.
27 Jan 11.6 01:02:14 10° W 01:48:10 - NE 01:06:33 17° WNW visible
27 Jan 11.1 04:05:28 16° N 04:05:28 16° N 04:12:23 10° NNE visible
27 Jan 10.4 06:29:09 10° NNW 06:38:19 19° NNE 06:44:45 10° NE visible
27 Jan 10.1 21:15:42 10° SW 21:32:11 89° SE 21:42:28 48° NE visible
27 Jan 11.0 23:45:53 10° W 23:59:48 38° WNW 23:59:48 38° WNW visible
28 Jan 11.4 02:58:24 12° NNE 02:58:24 12° NNE 02:59:42 10° NNE visible
28 Jan 10.8 05:15:42 12° NNW 05:24:08 17° N 05:31:43 10° NE visible
28 Jan 10.0 20:04:53 10° SW 20:18:24 65° SE 20:35:45 23° ENE visible
28 Jan 10.5 22:31:55 10° WSW 22:51:01 58° NNW 22:53:06 57° NNW visible
29 Jan 11.7 01:08:21 10° WNW 01:51:21 - NE 01:10:26 13° WNW visible
29 Jan 11.1 04:08:39 17° N 04:08:39 17° N 04:18:12 10° NE visible
29 Jan 10.2 06:31:46 10° NNW 06:43:15 26° NNE 06:50:28 10° ENE visible
29 Jan 10.2 21:19:39 10° WSW 21:35:50 77° NW 21:46:27 45° NE visible
29 Jan 11.1 23:51:10 10° W 00:03:47 32° NW 00:03:47 32° NW visible
30 Jan 11.4 03:01:37 14° NNE 03:01:37 14° NNE 03:04:34 10° NNE visible
30 Jan 10.7 05:18:55 12° NNW 05:29:22 21° N 05:37:54 10° ENE visible
30 Jan 9.9 20:08:34 10° SW 20:21:54 78° SE 20:39:49 23° ENE visible
30 Jan 10.7 22:36:33 10° W 22:55:11 48° NNW 22:57:10 47° NNW visible
31 Jan 11.7 01:54:36 - NE 01:54:36 - NE 01:14:31 10° WNW visible
31 Jan 11.0 04:11:55 19° N 04:14:06 19° N 04:24:21 10° NE visible
31 Jan 9.9 06:34:31 10° NW 06:47:58 35° NNE 06:55:39 10° E visible
31 Jan 10.3 21:23:49 10° WSW 21:39:42 64° NNW 21:50:35 40° NNE visible
31 Jan 11.3 23:56:51 10° WNW 00:07:56 27° NW 00:07:56 27° NW visible
01 Feb 11.3 03:04:57 16° NNE 03:04:57 16° NNE 03:10:06 10° NE visible
01 Feb 10.5 05:22:15 13° NNW 05:34:25 27° NNE 05:43:38 10° ENE visible
01 Feb 9.9 20:12:26 10° SW 20:25:32 86° NW 20:44:01 21° NE visible
01 Feb 10.8 22:41:32 10° W 22:59:39 40° NNW 23:01:23 40° NNW visible
02 Feb11.701:58:00NE01:58:00NE01:18:44WNWvisible
02 Feb 10.9 04:15:20 21° N 04:19:28 23° N 04:30:28 10° ENE visible
02 Feb 9.6 06:37:25 10° NW 06:52:29 48° NNE 07:00:25 10° E visible
02 Feb 10.5 21:28:16 10° WSW 21:43:50 53° NNW 21:54:50 35° NNE visible
03 Feb 11.4 00:02:57 10° WNW 00:12:11 22° NW 00:12:11 22° NW visible
03 Feb 11.2 03:08:26 19° NNE 03:08:26 19° NNE 03:16:06 10° NE visible
03 Feb 10.3 05:25:45 15° NNW 05:39:15 35° NNE 05:48:56 10° E visible
03 Feb 10.0 20:16:30 10° WSW 20:29:21 71° NNW 20:48:17 19° NE visible
03 Feb 11.0 22:46:54 10° W 23:04:26 33° NNW 23:05:38 33° NNW visible
04 Feb11.602:01:34NE02:01:34NE01:23:00NWvisible
04 Feb 10.8 04:18:54 24° N 04:24:39 28° NNE 04:36:17 10° ENE visible
04 Feb 9.3 06:40:29 10° NW 06:56:45 64° NNE 07:04:53 10° ESE visible
04 Feb 9.6 19:05:49 10° SW 19:16:16 82° SE 19:37:18 10° NE visible
04 Feb 10.7 21:33:02 10° W 21:48:14 43° NNW 21:59:05 30° NNE visible
05 Feb 11.5 00:09:16 10° WNW 00:16:26 19° NW 00:16:26 19° NW visible
05 Feb 11.1 03:12:06 23° NNE 03:12:06 23° NNE 03:22:13 10° ENE visible
05 Feb 10.0 05:29:26 17° NW 05:43:52 45° NNE 05:53:51 10° E visible
05 Feb 10.2 20:20:49 10° WSW 20:33:26 58° NNW 20:52:31 16° NE visible
05 Feb 11.2 22:52:40 10° WNW 23:09:32 28° NNW 23:09:52 28° NNW visible
